STARLINK-2549, 48314

Orbit data source: Space-Track

STARLINK-2549, 48314 is a payload satellite owned by SpaceX/Seattle (US) in LEO that was launched on Thu, 29 Apr 2021 UTC via an FALCON 9 launch vehicle from the Air Force Eastern Test Range (AFETR). Payload-class satellites include a variety of spacecraft equipped with specific instruments for various scientific and technological missions. These include communications satellites like Starlink; space stations such as the ISS; scientific satellites like the Hubble; Earth observation satellites from companies like Planet Labs, Umbra, and HawkEye 360; GPS; miniature CubeSats for education and research; and military/defense satellites.

Loading next visibility...
Identifier
48314, 2021-036AQ
Orbit
LEO
Country
Flag of USUS
Related business
Manufacturer
SpaceX/Seattle
Mission
Operational Commercial Communications
Bus & Motor
STARLINK, Unknown motor
Mass
260 kg wet, ~248 kg dry
Launch date (UTC)
2021-04-29 (5 years ago)
Launch vehicle
FALCON 9
Launch site
Air Force Eastern Test Range (AFETR)
Object type
Payload
Rocket body
Debris
Shape & HBR
Box + 1 Pan, 10.1 m
Radar Cross Section
13.562 m², Large (>1 m²)

Expand to show TLE details & history
Last TLE update: 1 day ago

TLE from 1 day ago
0 STARLINK-2549
1 48314U 21036AQ  25354.46048431 -.00000562  00000-0 -18832-4 0  9992
2 48314  53.0548  87.2917 0001616  87.8320 272.2854 15.06385828256226
Epoch: 2025-12-20T11:03Z
TLE epoch observation values (Epoch: 2025-12-20T11:03:05.844Z)
Latitude
-0.00002°
Longitude
-167.76963°
Altitude
548.09 km
Speed
7.589 km/s
True Right ascension
05h 49m 10s
True Declination
0° 00' 00"
Sunlit
Object was in full shadow at epoch
Visualization orbit readout
Latitude
Unknown
Longitude
Unknown
Altitude
Unknown
Speed
Unknown
Apparent Right ascension
Unknown
Apparent Declination
Unknown
Sunlit
N/A
Visualization observer readout
Local Sidereal Time
13:59:57
Azimuth
Unknown
Elevation
Unknown
Doppler factor
Unknown
Orbital elements
Apogee altitude
548.645 km
Perigee altitude
546.406 km
Semi-major axis
6,925.663 km
Eccentricity
0.00016
Inclination
53.0548°
RAAN
87.2917°
Arg. of periapsis
87.832°
True anomaly
272.2669°
Mean anomaly
272.2854°
Eccentric anomaly
272.27615°
Mean motion
3.76575 °/min
Orbital period
95.6 mins
BSTAR
-0.000018832
Loading maneuver chart data...
Computing Atmospheric mass density...
Loading historical data...
Loading historical data...
Loading historical data...
Loading historical data...
Loading historical data...
Loading historical data...
Loading historical data...

Documentation

Showing up to 5 results
|